Latest Weather Observations for Mildura

IDV60801

Issued at 1:02 pm EST Friday 31 July 2015 (issued every 30 minutes, with the page automatically refreshed every 10 minutes)

About weather observations | Map of weather stations | Latest weather observations for VIC | Other Formats
Station Details ID: 076031 Name: MILDURA AIRPORT Lat: -34.24 Lon: 142.09 Height: 50.0 m
Data from the previous 72 hours. | See also: Recent months at Mildura
Date/Time
EST
Temp
°C
App
Temp
°C
Dew
Point
Rel
Hum
%
Delta-T
°C
Wind Press
QNH
hPa
Press
MSL
hPa
Rain
since 9 am
mm
Dir
 
Spd
km/h
Gust
km/h
Spd
kts
Gust
kts
31/01:00pm 12.9 10.1 3.3 52 4.3 N 7 11 4 6 1021.0 1021.0 0.0
31/12:30pm 12.9 10.3 3.0 51 4.4 NE 6 11 3 6 1021.5 1021.6 0.0
31/12:00pm 12.9 10.3 3.3 52 4.3 NE 6 11 3 6 1022.2 1022.3 0.0
31/11:30am 12.0 9.3 3.5 56 3.8 NE 7 9 4 5 1022.8 1022.9 0.0
31/11:00am 11.0 8.2 5.1 67 2.7 ESE 9 13 5 7 1023.4 1023.5 0.0
31/10:30am 10.0 7.5 6.5 79 1.6 ESE 9 11 5 6 1023.6 1023.7 0.0
31/10:00am 8.0 5.9 6.8 92 0.6 ESE 7 11 4 6 1023.6 1023.7 0.0
31/09:55am 7.4 4.8 6.0 91 0.6 ESE 9 11 5 6 1023.7 1023.8 0.0
31/09:30am 7.2 5.2 6.9 98 0.1 SE 7 11 4 6 1023.7 1023.8 0.0
31/09:21am 6.9 4.8 6.8 99 0.0 SE 7 9 4 5 1023.8 1023.9 0.0
31/09:00am 5.1 2.8 5.0 99 0.0 S 6 7 3 4 1023.3 1023.4 0.0
31/08:35am 4.3 1.7 4.2 99 0.0 SSW 7 11 4 6 1023.4 1023.5 0.0
31/08:30am 4.1 1.1 4.0 99 0.0 SSW 9 11 5 6 1023.5 1023.6 0.0
31/08:00am 3.1 -0.1 3.0 99 0.0 SSW 9 11 5 6 1023.3 1023.4 0.0
31/07:57am 3.0 -0.2 2.9 99 0.0 SSW 9 13 5 7 1023.3 1023.4 0.0
31/07:30am 3.0 -0.2 2.9 99 0.0 SSW 9 11 5 6 1022.9 1023.0 0.0
31/07:00am 3.5 2.1 3.4 99 0.0 CALM 0 7 0 4 1022.4 1022.5 0.0
31/06:30am 3.4 1.9 3.1 98 0.1 CALM 0 0 0 0 1022.2 1022.3 0.0
31/06:00am 3.9 2.5 3.6 98 0.1 CALM 0 0 0 0 1022.1 1022.2 0.0
31/05:46am 3.7 1.1 3.4 98 0.1 WSW 6 7 3 4 1022.0 1022.1 0.0
31/05:30am 3.6 1.0 3.3 98 0.1 SW 6 7 3 4 1021.9 1022.0 0.0
31/05:00am 4.5 2.1 4.2 98 0.1 WSW 6 7 3 4 1021.7 1021.8 0.0
31/04:30am 5.1 3.5 4.7 97 0.2 WSW 2 7 1 4 1021.7 1021.8 0.0
31/04:12am 6.1 4.0 5.7 97 0.2 SSW 6 7 3 4 1021.3 1021.4 0.0
31/04:00am 5.8 3.4 5.4 97 0.2 SW 7 7 4 4 1021.3 1021.4 0.0
31/03:30am 6.6 4.4 6.0 96 0.3 SSW 7 7 4 4 1021.2 1021.2 0.0
31/03:00am 7.6 5.6 6.9 95 0.3 WSW 7 11 4 6 1021.6 1021.7 0.0
31/02:30am 8.8 7.9 7.6 92 0.6 SSW 2 6 1 3 1021.5 1021.6 0.0
31/02:06am 9.7 7.5 8.0 89 0.8 SSW 9 13 5 7 1021.5 1021.6 0.0
31/02:00am 9.9 7.7 8.0 88 0.9 SSW 9 13 5 7 1021.5 1021.6 0.0
31/01:30am 10.8 8.4 8.6 86 1.1 S 11 20 6 11 1021.4 1021.5 0.0
31/01:00am 8.3 6.0 5.9 85 1.1 WSW 7 11 4 6 1021.4 1021.5 0.0
31/12:56am 8.1 5.8 5.7 85 1.1 WSW 7 11 4 6 1021.4 1021.5 0.0
31/12:30am 9.5 6.5 6.0 79 1.6 WSW 11 15 6 8 1021.2 1021.2 0.0
31/12:00am 10.2 6.4 5.6 73 2.1 WSW 15 22 8 12 1021.2 1021.2 0.0
 
Date/Time
EST
Temp
°C
App
Temp
°C
Dew
Point
Rel
Hum
%
Delta-T
°C
Wind Press
QNH
hPa
Press
MSL
hPa
Rain
since 9 am
mm
Dir
 
Spd
km/h
Gust
km/h
Spd
kts
Gust
kts
30/11:30pm 10.6 6.9 4.7 67 2.7 WSW 13 19 7 10 1021.1 1021.1 0.0
30/11:00pm 9.9 6.6 4.3 68 2.5 W 11 17 6 9 1020.9 1020.9 0.0
30/10:30pm 10.2 7.1 3.5 63 2.9 W 9 13 5 7 1020.6 1020.6 0.0
30/10:00pm 10.5 7.3 3.3 61 3.1 W 9 13 5 7 1020.4 1020.4 0.0
30/09:30pm 11.4 7.4 2.9 56 3.7 W 13 17 7 9 1020.0 1020.0 0.0
30/09:00pm 11.1 7.3 1.6 52 4.0 W 11 15 6 8 1020.1 1020.1 0.0
30/08:30pm 11.3 7.5 1.5 51 4.1 WNW 11 17 6 9 1019.7 1019.7 0.0
30/08:00pm 11.3 7.3 0.7 48 4.4 NW 11 13 6 7 1019.2 1019.2 0.0
30/07:30pm 11.7 8.1 0.8 47 4.5 NW 9 13 5 7 1019.1 1019.1 0.0
30/07:00pm 12.7 9.2 1.1 45 4.9 NNW 9 11 5 6 1018.6 1018.6 0.0
30/06:30pm 13.9 10.0 0.9 41 5.6 NNW 11 15 6 8 1018.2 1018.2 0.0
30/06:00pm 15.0 11.5 1.2 39 6.0 NNW 9 11 5 6 1018.2 1018.2 0.0
30/05:30pm 15.7 11.4 0.7 36 6.5 NNW 13 19 7 10 1018.1 1018.1 0.0
30/05:00pm 16.8 11.7 0.9 34 7.0 NNW 17 28 9 15 1018.0 1018.0 0.0
30/04:30pm 16.4 10.7 0.5 34 6.9 NNW 20 30 11 16 1018.1 1018.1 0.0
30/04:00pm 16.4 10.7 0.5 34 6.9 NNW 20 30 11 16 1018.1 1018.1 0.0
30/03:30pm 16.2 10.6 1.5 37 6.5 NNW 20 39 11 21 1018.0 1018.0 0.0
30/03:00pm 16.1 10.4 0.7 35 6.7 NNW 20 35 11 19 1018.2 1018.2 0.0
30/02:30pm 16.2 9.8 0.7 35 6.7 NNW 24 33 13 18 1018.8 1018.8 0.0
30/02:00pm 15.6 8.9 1.3 38 6.2 NNW 26 35 14 19 1019.1 1019.1 0.0
30/01:30pm 14.3 8.7 1.2 41 5.7 NNW 20 33 11 18 1019.7 1019.7 0.0
30/01:00pm 13.5 7.2 1.5 44 5.2 NNW 24 32 13 17 1020.1 1020.1 0.0
30/12:30pm 13.6 8.1 1.9 45 5.1 NNW 20 35 11 19 1020.6 1020.6 0.0
30/12:00pm 13.0 7.5 2.0 47 4.8 NNW 20 37 11 20 1021.7 1021.8 0.0
30/11:30am 12.8 7.3 2.1 48 4.6 NNW 20 32 11 17 1022.3 1022.4 0.0
30/11:00am 12.1 6.0 2.8 53 4.1 N 24 35 13 19 1022.8 1022.9 0.0
30/10:30am 10.8 4.6 2.4 56 3.6 N 24 33 13 18 1022.9 1023.0 0.0
30/10:00am 10.1 4.3 2.2 58 3.3 N 22 30 12 16 1023.6 1023.7 0.0
30/09:30am 8.8 3.3 1.9 62 2.9 N 20 26 11 14 1023.4 1023.5 0.0
30/09:00am 8.1 2.6 1.7 64 2.6 N 20 28 11 15 1023.2 1023.3 0.0
30/08:30am 7.2 1.3 1.9 69 2.2 N 22 32 12 17 1023.4 1023.5 0.0
30/08:00am 6.5 1.0 2.0 73 1.8 N 20 26 11 14 1023.5 1023.6 0.0
30/07:30am 5.9 1.5 2.5 79 1.4 NNE 15 19 8 10 1023.6 1023.7 0.0
30/07:00am 5.8 1.7 2.1 77 1.5 N 13 17 7 9 1023.7 1023.8 0.0
30/06:30am 6.0 1.5 2.1 76 1.6 N 15 19 8 10 1023.7 1023.8 0.0
30/06:00am 5.9 1.4 2.2 77 1.5 N 15 17 8 9 1023.7 1023.8 0.0
30/05:30am 5.7 1.6 2.0 77 1.5 N 13 17 7 9 1023.8 1023.9 0.0
30/05:00am 5.4 1.2 1.7 77 1.5 N 13 17 7 9 1023.9 1024.0 0.0
30/04:30am 5.3 1.1 1.8 78 1.4 N 13 17 7 9 1024.4 1024.5 0.0
30/04:00am 3.9 -0.7 1.4 84 1.0 NNE 15 17 8 9 1024.4 1024.5 0.0
30/03:30am 4.1 0.3 1.8 85 0.9 N 11 13 6 7 1024.7 1024.8 0.0
30/03:00am 3.6 -0.6 1.5 86 0.8 NNE 13 15 7 8 1024.9 1025.0 0.0
30/02:30am 3.2 -1.1 0.9 85 0.9 NE 13 13 7 7 1025.1 1025.2 0.0
30/02:00am 3.8 0.2 0.8 81 1.1 NE 9 11 5 6 1025.6 1025.7 0.0
30/01:30am 4.5 1.0 1.5 81 1.2 NE 9 9 5 5 1026.0 1026.1 0.0
30/01:00am 5.3 2.3 2.1 80 1.3 NNE 7 9 4 5 1026.5 1026.6 0.0
30/12:30am 6.8 3.9 2.7 75 1.7 NNE 7 9 4 5 1026.8 1026.9 0.0
30/12:00am 8.1 4.7 2.1 66 2.5 N 9 13 5 7 1027.2 1027.3 0.0
 
Date/Time
EST
Temp
°C
App
Temp
°C
Dew
Point
Rel
Hum
%
Delta-T
°C
Wind Press
QNH
hPa
Press
MSL
hPa
Rain
since 9 am
mm
Dir
 
Spd
km/h
Gust
km/h
Spd
kts
Gust
kts
29/11:30pm 8.4 4.7 2.4 66 2.5 N 11 13 6 7 1027.5 1027.6 0.0
29/11:00pm 8.1 4.8 2.4 67 2.4 N 9 13 5 7 1027.8 1027.9 0.0
29/10:30pm 8.2 5.2 2.2 66 2.5 N 7 9 4 5 1028.3 1028.4 0.0
29/10:00pm 8.2 4.9 2.4 67 2.4 N 9 11 5 6 1028.3 1028.4 0.0
29/09:30pm 8.1 4.9 2.8 69 2.2 N 9 11 5 6 1028.7 1028.8 0.0
29/09:00pm 7.1 3.5 2.8 74 1.8 NNE 11 13 6 7 1028.6 1028.7 0.0
29/08:30pm 6.8 3.1 2.5 74 1.8 NE 11 13 6 7 1028.3 1028.4 0.0
29/08:00pm 7.8 4.2 2.9 71 2.1 NE 11 13 6 7 1028.5 1028.6 0.0
29/07:30pm 8.4 5.8 3.1 69 2.3 NE 6 9 3 5 1028.6 1028.7 0.0
29/07:00pm 8.4 5.2 3.1 69 2.2 NNE 9 11 5 6 1028.7 1028.8 0.0
29/06:30pm 9.5 6.6 2.6 62 2.9 NNE 7 9 4 5 1028.5 1028.6 0.0
29/06:00pm 11.3 8.0 2.3 54 3.8 N 9 13 5 7 1028.7 1028.8 0.0
29/05:30pm 11.6 7.9 2.4 53 4.0 N 11 15 6 8 1028.4 1028.5 0.0
29/05:00pm 12.2 8.5 2.1 50 4.3 N 11 15 6 8 1028.7 1028.8 0.0
29/04:30pm 12.6 8.4 1.9 48 4.6 N 13 19 7 10 1028.6 1028.7 0.0
29/04:00pm 12.9 8.8 2.2 48 4.6 N 13 20 7 11 1028.9 1029.0 0.0
29/03:30pm 12.9 8.4 2.2 48 4.7 N 15 22 8 12 1028.9 1029.0 0.0
29/03:00pm 13.7 9.3 2.6 47 4.9 NNW 15 20 8 11 1029.6 1029.7 0.0
29/02:30pm 13.5 9.4 2.4 47 4.9 NNW 13 24 7 13 1029.9 1030.0 0.0
29/02:00pm 12.8 8.3 2.1 48 4.6 NNW 15 24 8 13 1030.0 1030.1 0.0
29/01:30pm 12.8 8.3 2.4 49 4.5 NNE 15 20 8 11 1030.3 1030.4 0.0
29/01:00pm 13.0 8.5 2.0 47 4.7 NNW 15 22 8 12 1031.8 1031.9 0.0
29/12:30pm 13.1 8.3 2.4 48 4.7 NNW 17 24 9 13 1032.3 1032.4 0.0
29/12:00pm 12.6 7.7 1.9 48 4.6 N 17 22 9 12 1032.5 1032.6 0.0
29/11:30am 12.6 7.9 3.0 52 4.2 NNW 17 24 9 13 1033.2 1033.3 0.0
29/11:00am 12.8 8.9 3.5 53 4.1 NNW 13 19 7 10 1033.7 1033.8 0.0
29/10:30am 12.3 8.7 4.8 60 3.4 N 13 17 7 9 1034.1 1034.2 0.0
29/10:00am 10.8 7.2 4.9 67 2.7 NNE 13 17 7 9 1033.6 1033.7 0.0
29/09:30am 10.5 6.6 5.5 71 2.3 NNE 15 20 8 11 1034.1 1034.2 0.0
29/09:00am 10.1 7.0 5.5 73 2.1 NNE 11 15 6 8 1033.7 1033.8 0.0
29/08:30am 9.4 6.6 5.0 74 2.0 NNE 9 11 5 6 1034.3 1034.4 0.0
29/08:00am 8.7 5.5 4.9 77 1.7 NE 11 15 6 8 1034.0 1034.1 0.0
29/07:30am 8.1 5.8 4.7 79 1.5 NNE 6 9 3 5 1034.0 1034.1 0.0
29/07:00am 7.7 5.1 4.3 79 1.5 NNE 7 9 4 5 1033.2 1033.3 0.0
29/06:30am 8.2 6.2 4.6 78 1.6 ENE 4 6 2 3 1033.0 1033.1 0.0
29/06:00am 8.4 7.2 4.8 78 1.6 CALM 0 6 0 3 1032.8 1032.9 0.0
29/05:30am 8.9 6.4 4.7 75 1.9 NE 7 9 4 5 1032.6 1032.7 0.0
29/05:00am 8.6 5.7 4.8 77 1.7 NE 9 13 5 7 1032.5 1032.6 0.0
29/04:30am 8.5 7.2 4.3 75 1.8 CALM 0 0 0 0 1033.3 1033.4 0.0
29/04:00am 8.5 7.3 4.7 77 1.7 CALM 0 0 0 0 1033.3 1033.4 0.0
29/03:30am 8.6 7.4 4.4 75 1.8 CALM 0 0 0 0 1033.4 1033.5 0.0
29/03:00am 8.4 5.9 5.0 79 1.5 NE 7 9 4 5 1033.2 1033.3 0.0
29/02:30am 8.5 7.3 4.7 77 1.7 CALM 0 0 0 0 1033.8 1033.9 0.0
29/02:00am 8.5 7.0 4.9 78 1.6 ENE 2 6 1 3 1033.8 1033.9 0.0
29/01:30am 8.5 7.3 4.5 76 1.8 CALM 0 0 0 0 1034.2 1034.3 0.0
29/01:00am 8.9 7.6 4.3 73 2.0 CALM 0 0 0 0 1034.3 1034.4 0.0
29/12:30am 9.0 7.3 4.2 72 2.1 ESE 2 7 1 4 1034.5 1034.6 0.0
29/12:00am 9.0 7.8 4.4 73 2.0 CALM 0 0 0 0 1034.8 1034.9 0.0
 
Date/Time
EST
Temp
°C
App
Temp
°C
Dew
Point
Rel
Hum
%
Delta-T
°C
Wind Press
QNH
hPa
Press
MSL
hPa
Rain
since 9 am
mm
Dir
 
Spd
km/h
Gust
km/h
Spd
kts
Gust
kts
28/11:30pm 9.0 7.7 4.0 71 2.2 CALM 0 0 0 0 1034.8 1034.9 0.0
28/11:00pm 9.1 6.7 4.3 72 2.1 NNE 6 7 3 4 1034.7 1034.8 0.0
28/10:30pm 9.0 6.7 4.8 75 1.9 ENE 6 7 3 4 1035.1 1035.2 0.0
28/10:00pm 9.2 8.0 4.4 72 2.1 CALM 0 6 0 3 1035.4 1035.5 0.0
28/09:30pm 9.7 8.1 4.3 69 2.4 SSE 2 6 1 3 1035.4 1035.5 0.0
28/09:00pm 9.9 8.5 3.6 65 2.7 CALM 0 0 0 0 1035.4 1035.5 0.0
28/08:30pm 10.9 9.6 3.9 62 3.1 CALM 0 0 0 0 1035.4 1035.5 0.0
28/08:00pm 9.9 8.7 4.5 69 2.4 CALM 0 0 0 0 1035.5 1035.6 0.0
28/07:30pm 9.7 8.4 4.3 69 2.4 CALM 0 4 0 2 1035.6 1035.7 0.0
28/07:00pm 10.0 7.5 3.7 65 2.7 SE 6 7 3 4 1035.3 1035.4 0.0
28/06:30pm 11.5 8.9 4.3 61 3.2 SW 7 11 4 6 1034.9 1035.0 0.0
28/06:00pm 12.0 10.9 5.2 63 3.1 CALM 0 0 0 0 1034.8 1034.9 0.0
28/05:30pm 12.7 10.7 4.4 57 3.8 ESE 4 6 2 3 1034.6 1034.7 0.0
28/05:00pm 12.8 10.2 4.0 55 3.9 SE 7 9 4 5 1034.5 1034.6 0.0
28/04:30pm 13.0 10.4 4.4 56 3.9 SE 7 9 4 5 1034.4 1034.5 0.0
28/04:00pm 13.2 11.5 4.1 54 4.1 SW 2 7 1 4 1034.7 1034.8 0.0
28/03:30pm 13.2 10.9 4.6 56 4.0 S 6 9 3 5 1035.0 1035.1 0.0
28/03:00pm 13.2 10.9 5.6 60 3.5 WNW 7 9 4 5 1035.0 1035.1 0.0
28/02:30pm 13.5 11.4 5.7 59 3.7 SSW 6 7 3 4 1035.1 1035.2 0.0
28/02:00pm 12.7 10.7 6.1 64 3.1 W 6 9 3 5 1035.3 1035.4 0.0
28/01:30pm 13.7 11.1 6.1 60 3.6 WNW 9 15 5 8 1035.7 1035.8 0.0

Other Formats:

Comma delimited format used in spreadsheet applications
http://www.bom.gov.au/fwo/IDV60801/IDV60801.94693.axf

JavaScript Object Notation format (JSON) in row-major order
http://www.bom.gov.au/fwo/IDV60801/IDV60801.94693.json